[[{"header":{"parameterUnit":"m.s-1","parameterCategory":1,"la1":30.2991,"la2":30.254,"lo1":-89.0895,"lo2":-89.0444,"dy":0.0017,"dx":0.0017,"nx":28,"ny":28,"refTime":"2023-11-03T21:00:00:Z","depth":0,"parameterNumber":2,"parameterNumberName":"U-component_of_WINDS"},"data":[0,0,0,0,0,0,0,0,0,0,0,0,0,0,0,0,0,0,0,0,0,0,0,0,0,0,0,0,0,0,0,0,0,0,0,0,0,0,0,0,0,0,0,0,0,0,0,0,0,0,0,0,0,0,0,0,0,0,-2.6643,-2.6643,0,-2.6621,-2.662,-2.662,-2.6526,-2.6524,-2.6522,-2.652,-2.65,-2.6501,-2.6503,0,0,0,0,0,0,0,0,0,0,0,0,0,-2.6608,-2.6609,-2.6643,-2.6643,-2.6642,-2.6621,-2.662,-2.662,-2.6527,-2.6524,-2.6521,-2.6519,-2.6499,-2.6501,-2.6503,0,0,0,0,0,0,0,0,0,0,0,0,0,-2.6608,-2.6609,-2.6643,-2.6593,-2.6589,-2.6621,-2.662,-2.662,-2.6527,-2.6524,-2.6521,-2.6518,-2.6499,-2.6501,-2.6503,-2.6582,0,0,-2.651,-2.6511,0,0,0,0,0,0,0,0,-2.6608,-2.661,-2.6601,-2.6597,-2.6592,-2.6573,-2.66,-2.6607,-2.6528,-2.6551,-2.652,-2.6516,-2.6527,-2.6527,-2.653,-2.6581,-2.658,-2.651,-2.6511,-2.6512,-2.6513,0,0,0,0,0,0,0,-2.6608,-2.661,-2.6634,-2.6601,-2.6595,-2.6573,-2.6569,-2.6601,-2.6557,-2.6548,-2.6542,-2.654,-2.6524,-2.6528,-2.6528,-2.658,-2.651,-2.6512,-2.6513,-2.6514,-2.6697,-2.6701,0,0,0,0,0,0,-2.6615,-2.6611,-2.6635,-2.6633,-2.6592,-2.6576,-2.6572,-2.6582,-2.6557,-2.655,-2.6543,-2.6536,-2.6525,-2.6526,-2.6527,-2.662,-2.6512,-2.6514,-2.6516,-2.6694,-2.6698,-2.6702,0,0,0,0,0,0,-2.6615,-2.6618,-2.6636,-2.662,-2.6621,-2.658,-2.6592,-2.6584,-2.6587,-2.6553,-2.6545,-2.6555,-2.6523,-2.6524,-2.6569,-2.6618,-2.6515,-2.6517,-2.669,-2.6695,-2.67,-2.6806,0,0,0,0,0,0,-2.6614,-2.6618,-2.6648,-2.6621,-2.6622,-2.6678,-2.6595,-2.6585,-2.6591,-2.6582,-2.6562,-2.6555,-2.652,-2.6567,-2.6572,-2.6619,-2.6519,-2.6685,-2.6692,-2.6698,-2.6798,-2.6814,-2.6828,0,0,0,0,0,-2.6613,-2.6678,-2.665,-2.6653,-2.6657,-2.6681,-2.6681,-2.6639,-2.6595,-2.6625,-2.6603,-2.6556,-2.6611,-2.6572,-2.6577,-2.6626,-2.6682,-2.669,-2.6698,-2.6791,-2.6811,-2.6827,0,0,0,0,0,0,-2.6712,-2.6674,-2.6642,-2.67,-2.6694,-2.6665,-2.6701,-2.6661,-2.6668,-2.6659,-2.6607,-2.6603,-2.6657,-2.6645,-2.6602,-2.6702,-2.6639,-2.6648,-2.6708,-2.6726,-2.6741,-2.6744,-2.6521,0,0,0,0,0,-2.674,-2.6762,-2.6727,-2.6782,-2.6781,-2.6742,-2.675,-2.6718,-2.6711,-2.6708,-2.6689,-2.6684,-2.67,-2.6712,-2.6725,-2.6795,-2.679,-2.6831,-2.6846,-2.6858,-2.6868,-2.6906,-2.6924,-2.6728,-2.6728,-2.6728,0,0,-2.6799,-2.6781,-2.6798,-2.6802,-2.6794,-2.6818,-2.674,-2.6769,-2.6787,-2.6712,-2.6754,-2.674,-2.6731,-2.679,-2.6815,-2.6782,-2.6921,-2.6868,-2.6879,-2.6881,-2.6916,-2.6935,-2.6951,-2.6733,-2.6732,-2.6732,0,0,-2.6921,-2.6908,-2.6953,-2.6947,-2.6935,-2.6908,-2.6919,-2.6896,-2.6884,-2.6925,-2.687,-2.6891,-2.6919,-2.6916,-2.6918,-2.7038,-2.6997,-2.7044,-2.7124,-2.7161,-2.7177,-2.719,-2.7236,-2.7252,-2.7053,-2.7053,-2.7053,0,-2.6996,-2.703,-2.6982,-2.7015,-2.7019,-2.6951,-2.6998,-2.6994,-2.6988,-2.6993,-2.6956,-2.6991,-2.698,-2.7038,-2.7068,-2.707,-2.7083,-2.7047,-2.7178,-2.7191,-2.7203,-2.7246,-2.7263,-2.7059,-2.7059,-2.7058,-2.7057,0,-2.7125,-2.7149,-2.7187,-2.7183,-2.7191,-2.7231,-2.719,-2.7204,-2.7171,-2.7149,-2.7192,-2.7177,-2.7186,-2.7197,-2.7165,-2.7251,-2.7231,-2.7187,-2.7123,-2.7229,-2.7268,-2.7284,-2.7068,-2.7066,-2.7064,-2.7062,0,0,-2.7309,-2.7277,-2.7292,-2.729,-2.7272,-2.7291,-2.7328,-2.7336,-2.735,-2.7348,-2.7379,-2.7405,-2.7365,-2.7367,-2.7334,-2.7367,-2.7467,-2.7319,-2.7318,-2.7349,-2.7563,-2.7598,-2.7618,-2.7438,-2.7441,-2.7443,-2.7564,0,-2.7426,-2.7487,-2.7445,-2.7514,-2.7537,-2.7473,-2.7506,-2.7499,-2.7479,-2.7497,-2.7475,-2.7495,-2.7439,-2.744,-2.7469,-2.7448,-2.7509,-2.7439,-2.7469,-2.747,-2.7475,-2.7638,-2.7675,-2.779,-2.7579,-2.7582,-2.7583,0,-2.7571,-2.7576,-2.7647,-2.7626,-2.7634,-2.7664,-2.7669,-2.7686,-2.7678,-2.7661,-2.7664,-2.7623,-2.766,-2.7595,-2.7645,-2.7598,-2.7608,-2.7599,-2.7603,-2.7606,-2.7535,-2.7648,-2.7826,-2.7844,-2.7607,-2.7605,-2.7603,0,-2.7702,-2.7725,-2.7771,-2.7771,-2.7746,-2.7769,-2.7761,-2.7749,-2.7757,-2.7762,-2.7767,-2.7776,-2.7782,-2.7791,-2.7754,-2.771,-2.781,-2.7742,-2.7799,-2.7801,-2.7825,-2.7825,-2.801,-2.7827,-2.7827,-2.7827,-2.7827,0,-2.7839,-2.7886,-2.7829,-2.7858,-2.7909,-2.786,-2.7912,-2.7897,-2.7887,-2.7912,-2.7857,-2.7882,-2.7831,-2.7851,-2.7823,-2.787,-2.7872,-2.7862,-2.7854,-2.7868,-2.787,-2.7875,-2.7868,-2.7831,-2.783,-2.783,-2.7829,0,-2.7994,-2.7958,-2.8004,-2.7977,-2.7972,-2.8011,-2.7988,-2.8014,-2.799,-2.8023,-2.8028,-2.7992,-2.8013,-2.7976,-2.7993,-2.7974,-2.8041,-2.802,-2.8044,-2.8039,-2.81,-2.8096,-2.8297,-2.8322,-2.8121,-2.8123,-2.8125,0,-2.8085,-2.8119,-2.8096,-2.8109,-2.8103,-2.8125,-2.8133,-2.8086,-2.8097,-2.8091,-2.8119,-2.8135,-2.8146,-2.8183,-2.8159,-2.8172,-2.8152,-2.8222,-2.8154,-2.8168,-2.8156,-2.8156,-2.816,-2.8237,-2.8239,-2.8241,-2.8243,0,-2.8252,-2.8232,-2.8246,-2.8254,-2.8265,-2.8269,-2.827,-2.8284,-2.8234,-2.825,-2.8271,-2.8279,-2.8297,-2.8315,-2.8322,-2.8313,-2.8272,-2.8264,-2.8278,-2.8295,-2.8308,-2.8304,-2.8085,-2.826,-2.8258,-2.8257,-2.8256,-2.8255,-2.8379,-2.8407,-2.8396,-2.8414,-2.8409,-2.841,-2.8434,-2.8413,-2.8429,-2.844,-2.8411,-2.8439,-2.8431,-2.8436,-2.8433,-2.8455,-2.8425,-2.8445,-2.8451,-2.8457,-2.8468,-2.8303,-2.8456,-2.8455,-2.8455,-2.8454,-2.8454,0,-2.8545,-2.8534,-2.8551,-2.8553,-2.8567,-2.8524,-2.8522,-2.8538,-2.8563,-2.8558,-2.857,-2.8595,-2.8613,-2.859,-2.8603,-2.8626,-2.8607,-2.8631,-2.863,-2.863,-2.8493,-2.848,-2.8646,-2.8646,-2.8646,-2.8646,-2.8646,-2.8646,-2.8633,-2.8679,-2.8659,-2.8703,-2.8692,-2.8719,-2.8722,-2.8724,-2.872,-2.875,-2.8764,-2.8748,-2.8737,-2.875,-2.8764,-2.8757,-2.8766,-2.8798,-2.8784,-2.8658,-2.8639,-2.8621,-2.8609,-2.8799,-2.88,-2.8919,-2.892,-2.8921]},{"header":{"parameterUnit":"m.s-1","parameterCategory":1,"la1":30.2991,"la2":30.254,"lo1":-89.0895,"lo2":-89.0444,"dy":0.0017,"dx":0.0017,"nx":28,"ny":28,"refTime":"2023-11-03T21:00:00:Z","depth":0,"parameterNumber":3,"parameterNumberName":"V-component_of_WINDS"},"data":[0,0,0,0,0,0,0,0,0,0,0,0,0,0,0,0,0,0,0,0,0,0,0,0,0,0,0,0,0,0,0,0,0,0,0,0,0,0,0,0,0,0,0,0,0,0,0,0,0,0,0,0,0,0,0,0,0,0,0.1678,0.1676,0,0.151,0.1508,0.1506,0.1418,0.1418,0.1418,0.1418,0.124,0.1235,0.1231,0,0,0,0,0,0,0,0,0,0,0,0,0,0.1919,0.1915,0.1678,0.1676,0.1674,0.151,0.1508,0.1505,0.1418,0.1418,0.1418,0.1418,0.1241,0.1236,0.123,0,0,0,0,0,0,0,0,0,0,0,0,0,0.1789,0.1914,0.1679,0.1611,0.1603,0.1511,0.1508,0.1505,0.1418,0.1418,0.1418,0.1418,0.1243,0.1236,0.1229,0.119,0,0,0.1208,0.1205,0,0,0,0,0,0,0,0,0.1797,0.178,0.1623,0.1615,0.1607,0.1485,0.1527,0.1399,0.1418,0.1488,0.1418,0.1418,0.1321,0.1308,0.1276,0.1181,0.1174,0.1208,0.1203,0.12,0.1198,0,0,0,0,0,0,0,0.1806,0.1787,0.1611,0.1621,0.1611,0.1587,0.1569,0.1503,0.1407,0.1482,0.1475,0.1457,0.1316,0.1283,0.1271,0.1171,0.1208,0.1202,0.1197,0.1195,0.1034,0.1034,0,0,0,0,0,0,0.1826,0.1795,0.1617,0.1606,0.1703,0.1583,0.1562,0.1524,0.1408,0.139,0.1457,0.1453,0.1295,0.128,0.1265,0.121,0.12,0.1194,0.119,0.1034,0.1034,0.1034,0,0,0,0,0,0,0.1832,0.1811,0.1624,0.1699,0.1673,0.1579,0.1537,0.1521,0.1487,0.1389,0.1371,0.1441,0.1294,0.1275,0.1209,0.1202,0.1191,0.1184,0.1034,0.1034,0.1034,0.11,0,0,0,0,0,0,0.1839,0.1814,0.1799,0.1699,0.167,0.1573,0.1537,0.1518,0.1476,0.147,0.1369,0.1352,0.1293,0.122,0.1202,0.1192,0.1179,0.1034,0.1034,0.1034,0.1098,0.1102,0.1106,0,0,0,0,0,0.1848,0.1823,0.1799,0.1778,0.1649,0.1572,0.1555,0.1489,0.1476,0.1459,0.1396,0.1356,0.1207,0.1214,0.1193,0.1181,0.1034,0.1034,0.1034,0.1096,0.1101,0.1106,0,0,0,0,0,0,0.1923,0.1809,0.178,0.1723,0.1658,0.1558,0.1535,0.1496,0.1432,0.1429,0.1347,0.1325,0.1267,0.1218,0.1228,0.1136,0.1116,0.1112,0.1171,0.1175,0.1178,0.1191,0.1173,0,0,0,0,0,0.1933,0.1882,0.1784,0.1743,0.1712,0.163,0.1593,0.1548,0.1477,0.1448,0.138,0.1312,0.1249,0.1209,0.1146,0.1091,0.1067,0.1072,0.1076,0.108,0.1077,0.1043,0.1043,0.1033,0.1033,0.1033,0,0,0.1952,0.1884,0.1856,0.1756,0.1701,0.1648,0.1607,0.1552,0.1512,0.1439,0.1374,0.1322,0.1239,0.1179,0.1149,0.1136,0.1075,0.108,0.1084,0.1078,0.1042,0.1043,0.1044,0.1033,0.1033,0.1033,0,0,0.196,0.1905,0.1863,0.1809,0.1726,0.1672,0.1662,0.1567,0.1531,0.1464,0.1409,0.1358,0.1253,0.1196,0.1153,0.1141,0.1101,0.1123,0.1142,0.111,0.1111,0.1111,0.1105,0.1105,0.112,0.112,0.112,0,0.1994,0.1914,0.1847,0.1796,0.1753,0.1687,0.1644,0.1594,0.1494,0.1465,0.1453,0.1319,0.1259,0.1184,0.1181,0.1149,0.1134,0.1133,0.1117,0.1116,0.1115,0.1109,0.1107,0.1124,0.1123,0.1123,0.1123,0,0.1959,0.1905,0.1881,0.1789,0.1743,0.1696,0.162,0.1582,0.1541,0.1487,0.1419,0.1345,0.1266,0.1245,0.1204,0.1164,0.1158,0.1133,0.111,0.1121,0.1113,0.111,0.1128,0.1127,0.1126,0.1125,0,0,0.2008,0.188,0.1872,0.1829,0.1734,0.1689,0.1639,0.1563,0.1531,0.1465,0.142,0.1332,0.1308,0.126,0.1212,0.1184,0.1177,0.1161,0.1157,0.1165,0.1127,0.1146,0.1144,0.1151,0.115,0.1149,0.1133,0,0.2001,0.191,0.1848,0.1781,0.1728,0.1666,0.1622,0.1558,0.1506,0.1453,0.1395,0.1334,0.1308,0.1278,0.1248,0.1185,0.1168,0.1185,0.1106,0.1104,0.1127,0.114,0.116,0.1148,0.113,0.113,0.1129,0,0.1981,0.1919,0.1847,0.1757,0.1732,0.1694,0.1619,0.157,0.1495,0.146,0.1407,0.1358,0.1301,0.1286,0.1204,0.1217,0.1181,0.1145,0.1143,0.1132,0.1116,0.1128,0.1143,0.1141,0.1124,0.1125,0.1125,0,0.2022,0.192,0.1863,0.1829,0.1723,0.1697,0.1651,0.1577,0.1535,0.147,0.1442,0.137,0.133,0.1275,0.1207,0.1203,0.1133,0.1112,0.11,0.1102,0.1086,0.1088,0.1095,0.1066,0.1066,0.1066,0.1066,0,0.202,0.1978,0.188,0.1845,0.1796,0.1725,0.1677,0.1626,0.156,0.1513,0.1454,0.1411,0.1325,0.1271,0.1217,0.1158,0.114,0.1109,0.1095,0.1113,0.1117,0.1087,0.1085,0.1066,0.1066,0.1066,0.1066,0,0.2057,0.199,0.1924,0.183,0.1805,0.1773,0.1691,0.1654,0.16,0.1541,0.1523,0.1437,0.137,0.1298,0.1206,0.117,0.1113,0.1094,0.1138,0.113,0.1122,0.1123,0.1108,0.1102,0.108,0.108,0.1081,0,0.2059,0.2026,0.1929,0.1894,0.185,0.1794,0.1752,0.1681,0.1639,0.1552,0.1525,0.1454,0.1393,0.1288,0.1217,0.1146,0.1124,0.1124,0.1113,0.1132,0.1122,0.1124,0.112,0.1127,0.1127,0.1128,0.1128,0,0.207,0.2039,0.1982,0.1912,0.1864,0.1806,0.1745,0.1719,0.1636,0.1591,0.1523,0.1476,0.1383,0.1313,0.1234,0.1184,0.1142,0.1133,0.1126,0.1143,0.117,0.1154,0.1146,0.1133,0.1132,0.1132,0.1132,0.1132,0.2088,0.2055,0.1982,0.192,0.1867,0.1812,0.1772,0.1714,0.1657,0.1577,0.1538,0.147,0.1395,0.1284,0.1237,0.1181,0.1168,0.1158,0.1155,0.1154,0.1158,0.1181,0.1166,0.1166,0.1166,0.1165,0.1165,0,0.2095,0.2045,0.1989,0.1906,0.1857,0.1824,0.1755,0.1716,0.1657,0.1592,0.1534,0.1455,0.1387,0.1311,0.1238,0.1207,0.1186,0.119,0.1191,0.118,0.1174,0.1187,0.1209,0.1209,0.1209,0.1209,0.1209,0.1209,0.2092,0.2034,0.1995,0.191,0.1859,0.1794,0.1757,0.1705,0.1653,0.1568,0.1512,0.1464,0.1394,0.1315,0.125,0.123,0.1204,0.1214,0.1188,0.1184,0.118,0.1177,0.1188,0.121,0.121,0.1197,0.1197,0.1197]}]]